EST,Max TemperatureF,Mean TemperatureF,Min TemperatureF,Max Dew PointF,MeanDew PointF,Min DewpointF,Max Humidity, Mean Humidity, Min Humidity, Max Sea Level PressureIn, Mean Sea Level PressureIn, Min Sea Level PressureIn, Max VisibilityMiles, Mean VisibilityMiles, Min VisibilityMiles, Max Wind SpeedMPH, Mean Wind SpeedMPH, Max Gust SpeedMPH,PrecipitationIn, CloudCover, Events, WindDirDegrees
2012-1-1,68,50,32,54,40,30,100,71,32,30.22,30.15,30.03,10,10,10,14,3,18,0.00,0,,204
2012-1-2,60,51,42,54,29,16,82,44,26,30.11,30.03,29.97,10,10,10,15,9,21,0.00,1,,286
2012-1-3,37,32,26,12,7,3,51,33,24,30.36,30.22,30.04,10,10,10,24,12,30,0.00,0,,305
2012-1-4,46,32,19,27,15,3,86,53,20,30.46,30.35,30.22,10,10,10,13,3,,0.00,0,,199
2012-1-5,60,46,33,32,22,12,87,44,27,30.19,30.13,30.06,10,10,10,12,8,17,0.00,0,,270
2012-1-6,68,50,32,41,31,28,93,61,23,30.18,30.12,30.06,10,10,10,15,4,17,0.00,0,,222
2012-1-7,71,56,41,50,44,37,93,67,38,30.14,30.07,30.02,10,10,10,15,7,18,0.00,0,,233
2012-1-8,71,58,46,52,49,45,94,76,43,30.24,30.19,30.13,10,10,7,9,5,,0.00,2,Rain,241
2012-1-9,73,60,46,54,50,45,100,77,41,30.22,30.16,30.08,10,8,0,15,2,18,0.01,6,Fog-Rain,266
2012-1-10,59,54,50,55,52,50,100,93,88,30.12,30.07,30.04,10,6,0,7,2,,0.01,6,Fog-Rain,84
2012-1-11,68,60,51,63,56,50,94,87,73,29.99,29.80,29.63,10,8,3,18,5,30,0.18,7,Rain,155
2012-1-12,64,54,44,50,43,39,87,69,42,29.83,29.75,29.70,10,10,10,21,11,29,0.00,0,,232
2012-1-13,60,46,33,46,21,14,65,42,24,30.13,29.98,29.71,10,10,10,24,15,39,0.00,0,,262
2012-1-14,50,41,32,27,19,14,80,47,24,30.29,30.21,30.14,10,10,10,13,8,18,0.00,0,,273
2012-1-15,51,42,32,30,25,21,87,53,33,30.54,30.35,30.19,10,10,10,14,7,21,0.00,0,,290
2012-1-16,53,40,28,39,32,25,93,72,44,30.62,30.53,30.42,10,10,10,13,2,,0.00,1,,106
2012-1-17,69,56,42,50,46,39,93,74,46,30.39,30.26,30.08,10,10,10,18,4,24,0.00,5,Rain,223
2012-1-18,60,51,42,57,49,32,94,78,62,30.08,30.00,29.94,10,9,3,16,9,22,0.24,5,Rain,289
2012-1-19,53,42,32,41,34,28,93,75,54,30.24,30.15,30.06,10,10,10,9,5,,0.00,0,,58
2012-1-20,62,47,32,52,39,32,100,72,34,30.21,30.16,30.13,10,10,2,9,2,,0.00,5,Rain,194
2012-1-21,68,62,55,55,53,50,94,71,52,30.10,30.04,29.96,10,10,10,20,11,29,0.05,6,Rain,213
2012-1-22,55,50,46,54,51,45,100,94,93,30.20,30.12,30.06,10,6,0,15,5,21,0.00,8,Fog,29
2012-1-23,,,,,,,,,,,,,,,,,,,,,,
2012-1-24,,,,,,,,,,,,,,,,,,,,,,
2012-1-25,,,,,,,,,,,,,,,,,,,,,,
2012-1-26,,,,,,,,,,,,,,,,,,,,,,
2012-1-27,69,56,44,54,43,41,87,65,37,30.06,29.94,29.78,10,10,10,21,11,32,0.00,1,,254
2012-1-28,68,52,35,46,36,30,93,67,26,30.17,30.10,30.06,10,10,10,15,3,21,0.00,0,,262
2012-1-29,59,46,32,36,24,5,93,50,12,30.39,30.31,30.18,10,10,10,14,5,18,0.00,1,,342
2012-1-30,62,44,26,32,25,10,93,60,14,30.49,30.41,30.35,10,10,7,10,3,,0.00,0,,243
2012-1-31,66,48,30,41,29,19,93,58,17,30.47,30.40,30.34,10,10,10,12,2,,0.00,0,,193